Regional Weather Roundup
Issued by NWS

Home | Current Version | Previous Version | Text Only | Print | Product List | Glossary On
Versions: 1 2 3 4 5 6 7 8 9 10 11 12 13 14 15 16 17 18 19 20 21 22 23 24 25 26 27 28 29 30 31 32 33 34 35 36 37 38 39 40 41 42 43 44 45 46 47 48 49 50
000
ASUS45 KBOU 082107
RWRCO

WEATHER ROUNDUP FOR COLORADO
NATIONAL WEATHER SERVICE DENVER/BOULDER CO
200 PM MST MON FEB 08 2016

NOTE: "FAIR" INDICATES FEW OR NO CLOUDS BELOW 12000 FEET WITH NO
SIGNIFICANT WEATHER AND/OR OBSTRUCTIONS TO VISIBILITY.

COZ001>005-013-030-031-082200-
...NORTHWEST COLORADO...

CITY           SKY/WX    TMP DP  RH WIND       PRES   REMARKS
CRAIG          CLOUDY    23  15  71 S5        30.56F WCI  17
HAYDEN         CLOUDY    25  12  58 S3        30.54F
MEEKER         CLOUDY    32  18  56 CALM      30.53F
MOUNT WERNER   NOT AVBL
STEAMBOAT SPGS CLOUDY    26  16  64 CALM      30.53F
WALDEN         SUNNY     32  19  59 S3        30.46F
$$

COZ006>008-011-082200-
...WEST CENTRAL VALLEYS...

CITY           SKY/WX    TMP DP  RH WIND       PRES   REMARKS
GRAND JUNCTION CLOUDY    36  23  59 NE3       30.54F
MONTROSE       CLOUDY    37  21  52 CALM      30.54F
EAGLE          SUNNY     36  16  44 CALM      30.54F
RIFLE          CLOUDY    37  19  48 CALM      30.52F
DELTA          CLOUDY    41  21  45 CALM      30.55F
NUCLA          CLOUDY    43  23  45 CALM      30.51F
$$

COZ017>023-064>068-082200-
...SOUTHWEST COLORADO...

CITY           SKY/WX    TMP DP  RH WIND       PRES   REMARKS
DURANGO        SUNNY     40  20  44 E3        30.42F
CORTEZ         SUNNY     52  23  32 NW8       30.41F
PAGOSA SPRINGS SUNNY     44  19  36 SW3       30.41F
TELLURIDE      SUNNY     44  14  29 N5        30.50F
WOLF CREEK PAS SUNNY     32  10  40 N22G38    30.53S WCI  19
$$

COZ009-010-012-014-032>034-037-058>063-082200-
...CENTRAL COLORADO...

CITY           SKY/WX    TMP DP  RH WIND       PRES   REMARKS
ASPEN          SUNNY     38  19  46 NW6       30.49F
BUENA VISTA    CLOUDY    46  18  33 N18G25    30.38F
COPPER MTN     PTSUNNY   28  18  64 NW18G24   30.51S WCI  16
BERTHOUD PASS  PTSUNNY   18   9  68 NW32G41   30.46F WCI  -3
COTTONWOOD PAS CLOUDY    43  16  33 CALM      30.43F
GUNNISON       SUNNY     18   9  68 SE3       30.54F
KREMMLING      SUNNY     34  18  51 CALM      30.51F
LEADVILLE      SUNNY     35  16  45 N24G32    30.45F WCI  23
MONARCH PASS   SUNNY     25  18  74 SW18G24   30.60S WCI  11
SALIDA         NOT AVBL
SUNLIGHT       MOSUNNY   30  23  74 NW6         N/A  WCI  24
WILKERSON PASS SUNNY     32  14  47 NW8G24    30.46R WCI  25
$$

COZ069>075-082200-
...SAN LUIS VALLEY/SANGRE DE CRISTO MOUNTAINS...

CITY           SKY/WX    TMP DP  RH WIND       PRES   REMARKS
ALAMOSA        CLOUDY    45  14  28 NW5       30.40F
LA VETA PASS   CLOUDY    41  14  33 W10       30.42F
SAGUACHE       SUNNY     45  19  36 NE3       30.41F
$$

COZ035-036-038>040-082200-
...NORTHERN COLORADO FRONT RANGE...

CITY           SKY/WX    TMP DP  RH WIND       PRES   REMARKS
DENVER INTL AP PTSUNNY   39  22  50 SE8       30.32F
DMNS CITY PARK   N/A     45  20  36 E5G16     30.32S
AURORA         PTSUNNY   40  23  49 E9        30.33F
FRONT RANGE AP MOSUNNY   39  21  48 SE3       30.33F
ERIE MUNI ARPT SUNNY     44  22  41 SE7       30.32F
BOULDER MUN AP SUNNY     45  23  42 CALM      30.31F
CENTENNIAL     PTSUNNY   41  22  46 E8        30.32F
BROOMFIELD     MOSUNNY   46  21  36 E9        30.32F
FORT COLLINS   SUNNY     37  23  56 S10       30.33F
LONGMONT       SUNNY     48  23  38 S5        30.33F
$$

COZ041-046-047-076>085-087-088-082200-
...PIKES PEAK/PALMER DIVIDE AND SOUTHERN FOOTHILLS...

CITY           SKY/WX    TMP DP  RH WIND       PRES   REMARKS
COLO. SPRINGS  MOSUNNY   33  21  61 SE3       30.36F
A. F. ACADEMY  SUNNY     37  21  51 S7        30.33F
SCHRIEVER AFB  NOT AVBL
ELLICOTT       NOT AVBL
FALCON         SUNNY     39  20  46 SW7       30.35F
FORT CARSON    SUNNY     37  24  59 SE7       30.34F
LIMON          SUNNY     36  24  62 NW10      30.32F
MONUMENT HILL  SUNNY     34  23  64 S5        30.35F WCI  30
TRINIDAD       SUNNY     47  19  33 E5        30.36F
$$

COZ042>045-048>051-090-091-082200-
...NORTHEAST COLORADO...

CITY           SKY/WX    TMP DP  RH WIND       PRES   REMARKS
GREELEY ARPT   SUNNY     34  25  69 CALM      30.34F
AKRON          CLOUDY    37  26  64 NW13      30.29F
BURLINGTON     SUNNY     39  23  52 NW14      30.29F
WRAY           CLOUDY    39  24  56 NW14      30.31F
STERLING       CLOUDY    41  30  65 N10       30.30F
HOLYOKE        PTSUNNY   37  23  56 NW21      30.29F
FORT MORGAN    CLOUDY    38  25  61 W12       30.32F
$$

COZ086-089-092>099-082200-
...SOUTHEAST COLORADO...

CITY           SKY/WX    TMP DP  RH WIND       PRES   REMARKS
PUEBLO         SUNNY     46  22  38 S3        30.36F
LA JUNTA       SUNNY     45  22  40 N10       30.38F
LAMAR          SUNNY     47  24  40 NW15G24   30.35F
SPRINGFIELD      N/A     46  19  34 N24G32    30.35F
$$



USA.gov is the U.S. government's official web portal to all federal, state and local government web resources and services.